FW7447 Weather Reports


time (UTC)temp
C
wind
direction
speed
KPH
gust
KPH
rain 1hr
cm
rain 24hr
cm
rain mn
cm
humidity
%
barometer
mb
20260508210042 20 173 6.4 14.5 0.00 0.00 0.00 50 1014.3
20260508204546 20 146 3.2 16.1 0.00 0.00 0.00 49 1014.3
20260508203051 20 0 4.8 12.9 0.00 0.00 0.00 48 1014.3
20260508201555 20 178 4.8 14.5 0.00 0.00 0.00 48 1014.5
20260508200055 21 163 4.8 16.1 0.00 0.00 0.00 46 1014.7
20260508194538 21 195 9.7 16.1 0.00 0.00 0.00 45 1015.0
20260508193053 21 213 4.8 12.9 0.00 0.00 0.00 43 1015.2
20260508191544 21 192 6.4 20.9 0.00 0.00 0.00 44 1015.6
20260508190050 21 169 8.0 16.1 0.00 0.00 0.00 44 1015.5
20260508184540 21 198 8.0 17.7 0.00 0.00 0.00 43 1015.9
20260508183041 20 184 9.7 17.7 0.00 0.00 0.00 44 1016.0
20260508181607 20 74 9.7 17.7 0.00 0.00 0.00 42 1016.1
20260508174545 20 242 1.6 19.3 0.00 0.00 0.00 48 1016.5
20260508173049 20 244 8.0 19.3 0.00 0.00 0.00 49 1016.7
20260508171540 20 198 4.8 16.1 0.00 0.00 0.00 46 1016.9
20260508170039 20 162 6.4 16.1 0.00 0.00 0.00 47 1017.2
20260508164545 19 132 8.0 17.7 0.00 0.00 0.00 46 1017.4
20260508163045 19 121 3.2 12.9 0.00 0.00 0.00 45 1017.5
20260508161546 19 123 6.4 16.1 0.00 0.00 0.00 46 1017.8
20260508160044 18 89 3.2 8.0 0.00 0.00 0.00 51 1018.0
20260508154553 18 134 6.4 12.9 0.00 0.00 0.00 47 1018.4
20260508153043 18 70 4.8 12.9 0.00 0.00 0.00 48 1018.3
20260508151546 17 196 4.8 12.9 0.00 0.00 0.00 50 1018.3
20260508150043 17 0 6.4 17.7 0.00 0.00 0.00 53 1018.5
20260508144539 16 190 1.6 11.3 0.00 0.00 0.00 54 1018.6
20260508143037 16 125 4.8 9.7 0.00 0.00 0.00 58 1018.7
20260508141554 16 205 1.6 9.7 0.00 0.00 0.00 57 1018.7
20260508140053 15 263 3.2 6.4 0.00 0.00 0.00 64 1018.6
20260508134543 14 0 0.0 4.8 0.00 0.00 0.00 68 1018.7
20260508133040 14 275 3.2 6.4 0.00 0.00 0.00 68 1018.8
20260508131535 13 165 0.0 6.4 0.00 0.00 0.00 70 1018.6
20260508130034 12 162 1.6 9.7 0.00 0.00 0.00 74 1018.5
20260508124543 11 0 0.0 1.6 0.00 0.03 0.00 79 1018.4
20260508123044 11 0 1.6 6.4 0.00 0.03 0.00 82 1018.4
20260508121544 10 99 1.6 4.8 0.00 0.03 0.00 88 1018.3
20260508120052 9 99 1.6 8.0 0.00 0.03 0.00 92 1018.1
20260508114545 8 0 0.0 1.6 0.00 0.25 0.00 94 1017.9
20260508113053 7 0 0.0 1.6 0.00 0.25 0.00 94 1017.6
20260508111554 7 0 0.0 0.0 0.00 0.25 0.00 93 1017.4
20260508110056 6 0 0.0 0.0 0.00 0.25 0.00 92 1017.1
20260508104537 7 0 0.0 0.0 0.00 0.28 0.00 92 1017.0
20260508103104 7 0 0.0 0.0 0.00 0.28 0.00 92 1016.5
20260508101549 7 0 0.0 1.6 0.00 0.28 0.00 91 1016.2
20260508100045 7 20 0.0 1.6 0.00 0.28 0.00 91 1015.9
20260508094601 7 0 0.0 3.2 0.00 0.28 0.00 90 1015.9
20260508093040 7 20 0.0 3.2 0.00 0.28 0.00 90 1015.9
20260508091544 8 0 0.0 1.6 0.00 0.28 0.00 89 1015.8
20260508090058 8 20 1.6 4.8 0.00 0.28 0.00 88 1015.7
20260508084544 8 0 0.0 1.6 0.00 0.28 0.00 87 1015.6
20260508083055 9 0 0.0 3.2 0.00 0.28 0.00 86 1015.6
20260508081542 10 20 0.0 1.6 0.00 0.28 0.00 84 1015.4
20260508080037 10 0 0.0 8.0 0.00 0.28 0.00 82 1015.5
20260508074550 11 0 0.0 6.4 0.00 0.28 0.00 80 1015.3
20260508073044 11 272 0.0 4.8 0.00 0.28 0.00 77 1015.2
20260508071544 11 272 1.6 4.8 0.00 0.28 0.00 76 1015.2
20260508070043 12 272 1.6 6.4 0.00 0.28 0.00 75 1015.0
20260508064550 12 271 4.8 14.5 0.00 0.30 0.00 75 1015.0
20260508063047 12 279 3.2 11.3 0.00 0.30 0.00 75 1015.0
20260508061549 12 263 3.2 9.7 0.00 0.30 0.00 75 1014.9
20260508060047 12 275 1.6 9.7 0.00 0.30 0.00 75 1014.9
20260508054545 12 288 1.6 9.7 0.00 0.43 0.00 74 1015.0
20260508053040 12 286 1.6 6.4 0.00 0.43 0.00 73 1015.0
20260508051539 13 290 3.2 12.9 0.00 0.43 0.00 72 1015.0
20260508050046 13 327 6.4 12.9 0.00 0.43 0.00 71 1014.9
20260508044544 13 302 3.2 14.5 0.00 0.53 0.00 71 1014.7
20260508043049 13 322 1.6 6.4 0.00 0.53 0.00 71 1014.7
20260508041540 13 321 4.8 12.9 0.00 0.53 0.00 71 1014.7
20260508040041 13 0 3.2 6.4 0.00 0.53 0.00 71 1014.6
20260508034549 13 278 1.6 4.8 0.00 0.53 0.53 69 1014.7
20260508033044 13 248 3.2 14.5 0.00 0.53 0.53 69 1014.7
20260508031544 13 254 6.4 16.1 0.00 0.53 0.53 68 1014.6
20260508030045 13 274 8.0 14.5 0.00 0.53 0.53 68 1014.5
20260508024544 13 270 8.0 16.1 0.00 0.58 0.53 69 1014.4
20260508023049 13 246 4.8 12.9 0.00 0.58 0.53 71 1014.3
20260508021546 13 251 0.0 9.7 0.00 0.58 0.53 70 1014.1
20260508020044 13 333 4.8 20.9 0.00 0.58 0.53 70 1014.0
20260508014551 13 319 6.4 16.1 0.00 0.69 0.53 70 1013.8
20260508013045 13 279 4.8 16.1 0.00 0.69 0.53 68 1013.5
20260508011546 13 316 4.8 14.5 0.00 0.69 0.53 68 1013.3
20260508010043 13 277 6.4 12.9 0.00 0.69 0.53 68 1013.1
20260508004538 14 331 4.8 12.9 0.00 0.97 0.53 66 1012.9
20260508003053 14 351 6.4 12.9 0.00 0.97 0.53 65 1012.7
20260508001545 15 310 6.4 16.1 0.00 0.97 0.53 64 1012.3
20260508000045 15 271 9.7 25.7 0.00 0.97 0.53 62 1012.2
20260507234540 16 294 4.8 27.4 0.00 1.12 0.53 61 1012.2
20260507233040 16 284 11.3 27.4 0.00 1.12 0.53 63 1012.1
20260507231541 16 317 14.5 33.8 0.00 1.12 0.53 64 1011.9
20260507230044 16 280 12.9 38.6 0.00 1.12 0.53 65 1011.7
20260507224559 16 275 17.7 37.0 0.00 1.12 0.53 64 1011.3
20260507223052 17 329 12.9 29.0 0.00 1.12 0.53 64 1010.9
20260507221537 18 269 11.3 29.0 0.00 1.12 0.53 64 1010.9
20260507220045 19 289 11.3 33.8 0.00 1.12 0.53 62 1010.6
20260507214542 20 315 11.3 30.6 0.00 1.12 0.53 61 1009.9
20260507213041 20 273 14.5 32.2 0.00 1.12 0.53 61 1009.6
20260507211549 20 317 9.7 29.0 0.00 1.12 0.53 62 1009.3